FW1310 Weather Reports


time (UTC)temp
F
wind
direction
speed
knots
gust
knots
rain 1hr
in
rain 24hr
in
rain mn
in
humidity
%
barometer
mb
20260507164004 58 355 1.7 4.3 0.00 0.00 0.00 83 1003.9
20260507163504 59 30 1.7 2.6 0.00 0.00 0.00 82 1003.7
20260507163004 59 126 1.7 2.6 0.00 0.00 0.00 82 1004.3
20260507162504 59 133 0.9 2.6 0.00 0.00 0.00 80 1004.8
20260507162004 59 180 1.7 2.6 0.00 0.00 0.00 79 1004.9
20260507161504 59 226 0.0 2.6 0.00 0.00 0.00 80 1005.3
20260507161004 58 77 1.7 5.2 0.00 0.00 0.00 81 1005.1
20260507160503 59 128 2.6 5.2 0.00 0.00 0.00 81 1004.9
20260507155504 59 78 1.7 2.6 0.00 0.00 0.00 82 1004.3
20260507155004 58 103 1.7 2.6 0.00 0.00 0.00 83 1004.4
20260507154504 59 77 0.9 4.3 0.00 0.00 0.00 83 1004.5
20260507153504 58 196 0.9 2.6 0.00 0.00 0.00 82 1004.6
20260507152504 58 211 0.9 2.6 0.00 0.00 0.00 84 1004.2
20260507152004 58 134 0.9 4.3 0.00 0.00 0.00 84 1004.5
20260507151504 58 141 0.9 2.6 0.00 0.00 0.00 84 1004.8
20260507151004 58 119 1.7 4.3 0.00 0.00 0.00 85 1004.4
20260507150504 58 109 1.7 4.3 0.00 0.00 0.00 86 1003.8
20260507150005 58 121 1.7 4.3 0.00 0.00 0.00 86 1004.5
20260507145503 58 350 1.7 5.2 0.00 0.00 0.00 86 1004.8
20260507145004 58 95 1.7 5.2 0.00 0.00 0.00 86 1004.5
20260507144504 57 98 1.7 5.2 0.00 0.00 0.00 87 1003.6
20260507144004 57 131 2.6 4.3 0.00 0.00 0.00 87 1003.8
20260507143504 57 99 2.6 6.1 0.00 0.00 0.00 88 1004.2
20260507143004 57 71 1.7 5.2 0.00 0.00 0.00 88 1004.0
20260507142504 56 105 2.6 7.0 0.00 0.00 0.00 88 1004.0
20260507142004 56 131 1.7 5.2 0.00 0.00 0.00 89 1004.3
20260507141504 56 187 1.7 5.2 0.00 0.00 0.00 90 1004.0
20260507140503 56 139 2.6 4.3 0.00 0.00 0.00 90 1004.1
20260507140004 56 107 0.9 5.2 0.00 0.00 0.00 91 1004.0
20260507135504 56 149 0.9 1.7 0.00 0.00 0.00 91 1003.9
20260507135004 56 80 1.7 4.3 0.00 0.00 0.00 91 1004.0
20260507134504 56 116 1.7 4.3 0.00 0.00 0.00 92 1003.7
20260507134004 56 119 1.7 4.3 0.00 0.00 0.00 92 1003.6
20260507133004 56 72 2.6 5.2 0.00 0.00 0.00 92 1003.3
20260507132004 56 77 0.9 5.2 0.00 0.00 0.00 92 1003.6
20260507131504 56 167 1.7 7.0 0.00 0.00 0.00 92 1003.5
20260507131004 56 103 2.6 7.0 0.00 0.00 0.00 92 1003.4
20260507130504 56 90 1.7 4.3 0.00 0.00 0.00 92 1003.7
20260507125504 55 27 2.6 5.2 0.00 0.00 0.00 92 1003.6
20260507125004 55 251 0.9 2.6 0.00 0.00 0.00 92 1003.7
20260507124503 55 70 1.7 5.2 0.00 0.00 0.00 92 1003.5
20260507123504 55 52 0.9 6.1 0.00 0.00 0.00 92 1003.6
20260507122504 55 172 2.6 6.1 0.00 0.00 0.00 92 1003.3
20260507121504 55 130 3.5 8.7 0.00 0.00 0.00 92 1003.4
20260507121004 55 140 1.7 11.3 0.00 0.00 0.00 92 1003.1
20260507120503 56 72 3.5 11.3 0.00 0.00 0.00 91 1003.1
20260507120004 56 135 1.7 4.3 0.00 0.00 0.00 91 1002.9
20260507115504 56 222 1.7 6.1 0.00 0.00 0.00 91 1002.6
20260507114503 56 53 1.7 5.2 0.00 0.00 0.00 91 1002.7
20260507113504 56 47 4.3 7.8 0.00 0.00 0.00 91 1003.1
20260507113004 56 84 1.7 5.2 0.00 0.00 0.00 91 1003.1
20260507112003 56 109 1.7 4.3 0.00 0.00 0.00 90 1002.9
20260507111504 56 45 2.6 7.0 0.00 0.00 0.00 90 1002.7
20260507111004 56 71 1.7 4.3 0.00 0.00 0.00 90 1002.6
20260507110504 56 114 1.7 2.6 0.00 0.00 0.00 90 1002.7
20260507110004 56 0 0.9 2.6 0.00 0.00 0.00 90 1002.7
20260507105504 56 199 1.7 7.0 0.00 0.00 0.00 90 1002.7
20260507105004 56 63 1.7 4.3 0.00 0.00 0.00 89 1002.7
20260507104504 56 144 2.6 6.1 0.00 0.00 0.00 89 1002.8
20260507104004 56 59 0.9 5.2 0.00 0.00 0.00 89 1003.0
20260507103504 57 63 4.3 10.4 0.00 0.00 0.00 89 1002.8
20260507103004 57 63 1.7 4.3 0.00 0.00 0.00 89 1002.4
20260507102504 57 154 1.7 6.1 0.00 0.00 0.00 89 1002.3
20260507101004 57 167 0.9 4.3 0.00 0.00 0.00 89 1002.6
20260507100504 57 98 2.6 6.1 0.00 0.00 0.00 89 1002.4
20260507100005 57 176 2.6 5.2 0.00 0.00 0.00 89 1002.2
20260507095504 57 35 1.7 2.6 0.00 0.00 0.00 89 1002.3
20260507095004 57 93 0.9 4.3 0.00 0.00 0.00 89 1002.4
20260507094504 57 202 1.7 4.3 0.00 0.00 0.00 88 1002.4
20260507094004 57 87 1.7 4.3 0.00 0.00 0.00 89 1002.5
20260507093504 57 351 0.9 6.1 0.00 0.00 0.00 89 1002.1
20260507093004 57 107 1.7 5.2 0.00 0.00 0.00 88 1002.0
20260507092504 57 178 1.7 5.2 0.00 0.00 0.00 88 1002.0
20260507090504 57 145 0.0 1.7 0.00 0.00 0.00 88 1001.6
20260507090005 57 35 0.9 4.3 0.00 0.00 0.00 88 1001.8
20260507085503 57 183 2.6 4.3 0.00 0.00 0.00 88 1001.7
20260507085004 57 169 0.9 4.3 0.00 0.00 0.00 88 1001.7
20260507084504 57 90 0.9 4.3 0.00 0.00 0.00 88 1001.5
20260507084004 57 109 0.0 4.3 0.00 0.00 0.00 88 1001.6
20260507083504 57 193 1.7 1.7 0.00 0.00 0.00 88 1001.5
20260507083005 57 129 0.9 2.6 0.00 0.00 0.00 88 1001.3
20260507082004 57 179 0.9 4.3 0.00 0.00 0.00 87 1001.4
20260507081504 58 173 2.6 4.3 0.00 0.00 0.00 87 1001.3
20260507080504 58 222 1.7 6.1 0.00 0.00 0.00 87 1001.3
20260507075003 58 179 1.7 2.6 0.00 0.00 0.00 87 1001.1
20260507074504 58 189 0.9 2.6 0.00 0.00 0.00 87 1001.1
20260507074004 58 217 0.9 1.7 0.00 0.00 0.00 87 1001.0
20260507073504 58 171 0.9 5.2 0.00 0.00 0.00 86 1000.6
20260507073004 58 158 2.6 6.1 0.00 0.00 0.00 86 1000.6
20260507072504 58 54 1.7 4.3 0.00 0.00 0.00 86 1000.8
20260507071504 58 184 0.0 1.7 0.00 0.00 0.00 86 1001.0
20260507071004 58 154 1.7 6.1 0.00 0.00 0.00 86 1000.9
20260507070504 58 205 1.7 6.1 0.00 0.00 0.00 86 1001.0
20260507070009 58 191 0.9 4.3 0.00 0.00 0.00 85 1001.0
20260507065504 58 189 0.9 2.6 0.00 0.00 0.00 85 1001.0
20260507065004 58 195 1.7 7.0 0.00 0.00 0.00 85 1000.8
20260507064504 58 175 1.7 7.0 0.00 0.00 0.00 85 1000.6
20260507063004 59 231 0.9 5.2 0.00 0.00 0.00 84 1000.8
20260507062004 59 151 1.7 4.3 0.00 0.00 0.00 84 1000.8
20260507061004 59 178 1.7 2.6 0.00 0.00 0.00 84 1001.0
20260507060504 59 191 1.7 6.1 0.00 0.00 0.00 85 1001.2
20260507060004 59 202 1.7 6.1 0.00 0.00 0.00 85 1001.1
20260507055503 59 167 0.9 1.7 0.00 0.00 0.00 85 1000.7
20260507055004 59 87 0.0 1.7 0.00 0.00 0.00 85 1000.9
20260507054504 59 72 0.9 2.6 0.00 0.00 0.00 85 1001.0
20260507054004 59 208 0.9 2.6 0.00 0.00 0.00 85 1000.8
20260507053504 59 195 0.9 2.6 0.00 0.00 0.00 84 1000.7
20260507053005 59 194 1.7 4.3 0.00 0.00 0.00 84 1000.6
20260507052504 59 178 2.6 4.3 0.00 0.00 0.00 84 1000.8
20260507052004 60 132 0.9 4.3 0.00 0.00 0.00 84 1000.9
20260507051503 60 143 1.7 5.2 0.00 0.00 0.00 83 1000.9
20260507051004 60 162 1.7 5.2 0.00 0.00 0.00 83 1000.8
20260507050504 60 179 2.6 5.2 0.00 0.00 0.00 83 1000.8
20260507050004 60 163 1.7 4.3 0.00 0.00 0.00 83 1000.8
20260507045504 60 185 1.7 5.2 0.00 0.00 0.00 83 1001.1
20260507045004 60 249 0.9 4.3 0.00 0.00 0.00 83 1000.8
20260507044004 60 137 2.6 5.2 0.00 0.00 0.00 83 1000.8
20260507043503 60 216 2.6 5.2 0.00 0.00 0.00 83 1000.8
20260507042004 60 141 1.7 6.1 0.00 0.00 0.00 84 1000.9
20260507041504 60 116 0.9 1.7 0.00 0.00 0.00 84 1001.1
20260507041004 60 148 0.9 1.7 0.00 0.00 0.00 84 1001.1
20260507040004 60 70 1.7 4.3 0.00 0.00 0.00 84 1001.2
20260507034505 60 356 1.7 5.2 0.00 0.00 0.00 84 1000.6
20260507034004 60 23 1.7 6.1 0.00 0.00 0.00 84 1000.7
20260507033504 60 89 2.6 6.1 0.00 0.00 0.00 84 1000.8
20260507032004 60 98 2.6 5.2 0.00 0.00 0.00 84 1000.6
20260507031504 60 284 1.7 6.1 0.00 0.00 0.00 84 1000.2
20260507031004 60 86 1.7 5.2 0.00 0.00 0.00 85 1000.4
20260507030504 60 105 1.7 6.1 0.00 0.00 0.00 85 1000.2
20260507030004 60 67 0.9 2.6 0.00 0.00 0.00 85 1000.5
20260507025504 60 93 1.7 4.3 0.00 0.00 0.00 85 1000.9
20260507024504 60 10 1.7 4.3 0.00 0.00 0.00 85 1000.7
20260507024003 60 91 1.7 4.3 0.00 0.00 0.00 85 1000.6
20260507023504 60 61 2.6 5.2 0.00 0.00 0.00 85 1000.4
20260507023004 60 79 1.7 5.2 0.00 0.00 0.00 85 1000.1
20260507022503 60 136 1.7 4.3 0.00 0.00 0.00 85 999.9
20260507020504 60 56 0.9 5.2 0.00 0.00 0.00 85 1000.3
20260507020004 60 111 1.7 2.6 0.00 0.00 0.00 84 1000.1
20260507015504 60 118 1.7 4.3 0.00 0.00 0.00 84 999.8
20260507015004 60 100 0.9 1.7 0.00 0.00 0.00 84 999.7
20260507014504 60 87 1.7 4.3 0.00 0.00 0.00 84 999.5
20260507014004 60 82 1.7 4.3 0.00 0.00 0.00 84 999.5
20260507013504 60 131 1.7 2.6 0.00 0.00 0.00 84 999.5
20260507012504 60 92 1.7 4.3 0.00 0.00 0.00 84 999.1
20260507012005 60 138 0.9 2.6 0.00 0.00 0.00 84 999.0
20260507011004 60 72 0.0 1.7 0.00 0.00 0.00 84 999.2
20260507010504 60 158 1.7 5.2 0.00 0.00 0.00 84 999.1
20260507010004 60 65 0.9 2.6 0.00 0.00 0.00 84 998.8
20260507005504 60 131 0.9 1.7 0.00 0.00 0.00 83 998.9
20260507005004 60 115 0.9 2.6 0.00 0.00 0.00 83 998.6
20260507004503 60 132 1.7 5.2 0.00 0.00 0.00 83 998.5
20260507004004 60 63 1.7 2.6 0.00 0.00 0.00 83 998.9
20260507003504 60 70 1.7 4.3 0.00 0.00 0.00 83 998.9
20260507003004 61 114 1.7 2.6 0.00 0.00 0.00 83 998.6
20260507002504 61 68 0.9 2.6 0.00 0.00 0.00 83 998.3
20260507002004 61 77 0.0 2.6 0.00 0.00 0.00 83 998.5
20260507001504 61 90 1.7 4.3 0.00 0.00 0.00 82 998.5
20260507001004 61 77 0.9 1.7 0.00 0.00 0.00 82 998.5
20260507000505 61 94 2.6 4.3 0.00 0.00 0.00 82 998.4
20260507000004 61 127 2.6 5.2 0.00 0.00 0.00 82 998.4
20260506235503 61 83 1.7 4.3 0.00 0.00 0.00 82 998.4
20260506235004 61 125 0.9 4.3 0.00 0.00 0.00 82 998.5
20260506234504 61 111 1.7 4.3 0.00 0.00 0.00 82 998.5
20260506234004 61 63 1.7 5.2 0.00 0.00 0.00 82 998.4
20260506233504 61 117 1.7 5.2 0.00 0.00 0.00 81 998.2
20260506233004 61 56 1.7 5.2 0.00 0.00 0.00 82 998.4
20260506232504 61 61 1.7 6.1 0.00 0.00 0.00 82 998.4
20260506232004 61 143 2.6 6.1 0.00 0.00 0.00 82 998.1
20260506231504 61 98 2.6 5.2 0.00 0.00 0.00 82 998.6
20260506231004 61 121 1.7 4.3 0.00 0.00 0.00 82 998.7
20260506230504 61 123 1.7 6.1 0.00 0.00 0.00 81 998.4
20260506230004 61 103 1.7 7.0 0.00 0.00 0.00 81 998.0
20260506225005 62 314 1.7 2.6 0.00 0.00 0.00 80 998.1
20260506224504 61 84 2.6 5.2 0.00 0.00 0.00 82 998.4
20260506224004 61 116 3.5 6.1 0.00 0.00 0.00 82 998.3
20260506223504 61 117 1.7 5.2 0.00 0.00 0.00 81 998.2
20260506223004 61 180 1.7 6.1 0.00 0.00 0.00 82 998.2
20260506222504 61 101 2.6 6.1 0.00 0.00 0.00 82 998.2
20260506222004 60 89 2.6 7.0 0.00 0.00 0.00 83 997.9
20260506221504 61 120 2.6 6.1 0.00 0.00 0.00 82 998.1
20260506221004 60 97 2.6 5.2 0.00 0.00 0.00 82 998.0
20260506220504 60 48 1.7 6.1 0.00 0.00 0.00 83 998.4
20260506220004 60 89 1.7 5.2 0.00 0.00 0.00 83 998.2
20260506215504 60 89 2.6 6.1 0.00 0.00 0.00 84 998.4
20260506215004 60 115 2.6 6.1 0.00 0.00 0.00 84 998.1
20260506214504 60 102 3.5 7.0 0.00 0.00 0.00 83 998.1
20260506213503 59 106 2.6 5.2 0.00 0.00 0.00 84 998.1
20260506212504 59 64 2.6 7.8 0.00 0.00 0.00 84 998.3
20260506212004 60 122 2.6 7.8 0.00 0.00 0.00 83 998.4
20260506211504 59 121 1.7 7.0 0.00 0.00 0.00 84 998.4
20260506211004 59 302 2.6 7.8 0.00 0.00 0.00 84 998.5
20260506210504 59 87 3.5 7.8 0.00 0.00 0.00 84 998.6
20260506210004 60 107 2.6 5.2 0.00 0.00 0.00 83 998.5
20260506205504 60 60 2.6 7.0 0.00 0.00 0.00 82 998.6
20260506205005 60 100 1.7 7.0 0.00 0.00 0.00 84 998.4
20260506203504 60 110 2.6 7.8 0.00 0.00 0.00 83 998.5
20260506203004 60 94 2.6 5.2 0.00 0.00 0.00 83 998.6
20260506202504 60 140 3.5 6.1 0.00 0.00 0.00 83 998.7
20260506202004 60 88 2.6 5.2 0.00 0.00 0.00 83 998.7
20260506201504 60 100 2.6 6.1 0.00 0.00 0.00 83 998.7
20260506201003 60 82 3.5 5.2 0.00 0.00 0.00 82 998.4
20260506200504 60 81 4.3 7.0 0.00 0.00 0.00 82 998.6
20260506200004 60 134 2.6 6.1 0.00 0.00 0.00 82 998.6
20260506195004 60 101 4.3 7.0 0.00 0.00 0.00 83 998.7
20260506194504 61 107 3.5 7.8 0.00 0.00 0.00 82 998.6
20260506193504 62 94 2.6 6.1 0.00 0.00 0.00 81 998.4
20260506193004 62 94 2.6 7.8 0.00 0.00 0.00 82 998.5
20260506192504 62 74 2.6 7.8 0.00 0.00 0.00 82 998.6
20260506192004 63 78 4.3 8.7 0.00 0.00 0.00 81 998.4
20260506191504 63 77 2.6 8.7 0.00 0.00 0.00 81 998.5
20260506191004 64 125 1.7 6.1 0.00 0.00 0.00 81 998.5
20260506190504 63 149 2.6 6.1 0.00 0.00 0.00 82 998.5
20260506190004 63 60 3.5 7.0 0.00 0.00 0.00 83 998.5
20260506185004 63 60 3.5 7.8 0.00 0.00 0.00 83 998.5
20260506184504 64 78 3.5 6.1 0.00 0.00 0.00 82 998.5
20260506184003 65 46 2.6 7.0 0.00 0.00 0.00 82 998.4
20260506183504 66 64 2.6 7.0 0.00 0.00 0.00 81 998.4
20260506183005 66 40 4.3 7.8 0.00 0.00 0.00 81 998.4
20260506182504 68 107 3.5 8.7 0.00 0.00 0.00 78 998.3
20260506182004 69 136 2.6 7.0 0.00 0.00 0.00 76 998.3
20260506181504 70 98 3.5 7.8 0.00 0.00 0.00 74 998.2
20260506181004 71 97 2.6 5.2 0.00 0.00 0.00 73 998.1
20260506180504 72 80 1.7 4.3 0.00 0.00 0.00 73 998.2
20260506175504 72 149 1.7 5.2 0.00 0.00 0.00 72 997.9
20260506175004 73 110 2.6 5.2 0.00 0.00 0.00 71 997.9
20260506174504 72 238 0.9 4.3 0.00 0.00 0.00 73 997.7
20260506174004 72 51 0.9 2.6 0.00 0.00 0.00 72 997.6
20260506173504 72 259 1.7 4.3 0.00 0.00 0.00 71 997.6
20260506173004 71 160 0.9 2.6 0.00 0.00 0.00 73 997.4
20260506172504 70 266 2.6 4.3 0.00 0.00 0.00 73 997.5
20260506172004 71 205 1.7 4.3 0.00 0.00 0.00 72 997.5
20260506171504 71 266 0.9 2.6 0.00 0.00 0.00 72 997.5
20260506170504 70 120 1.7 4.3 0.00 0.00 0.00 75 997.6
20260506170004 68 183 3.5 6.1 0.00 0.00 0.00 76 997.3
20260506165504 68 192 2.6 6.1 0.00 0.00 0.00 77 997.4
20260506164504 67 238 0.9 5.2 0.00 0.00 0.00 80 997.6